SCP
0 0 0 0 0 0 0 0 0 0 0 0 0 0 0 0 0 0 0 0 0 0 0 0 0 0 0 0 0 0 0 0 0 0 0 0 0 0 0 0 0 0 0 0
0 0 0 0 0 0 0 0 0 0 0 0 0 0 0 0 0 0 0 0 0 0 0 0 0 0 0 0 0 0 0 0 0 0 0 0 0 0 0 0 0 0 0 0
0 0 0 0 0 0 0 0 0 0 0 0 0 0 0 0 0 0 0 0 0 0 0 0 0 0 0 0 0 0 0 0 0 0 0 0 0 0 0 0 0 0 0 0
0 0 0 0 0 0 0 0 0 0 0 0 0 0 0 0 0 0 0 0 0 0 0 0 0 0 0 0 0 0 0 0 0 0 0 0 0 0 0 0 0 0 0 0
0 0 0 0 0 0 0 0 0 0 0 0 0 0 0 0 0 0 0 0 0 0 0 0 0 0 0 0 0 0 0 0 0 0 0 0 0 0 0 0 0 0 0 0
0 0 0 0 0 0 0 0 0 0 0 0 0 0 0 0 0 0 0 0 0 0 0 0 0 0 0 0 0 0 0 0 0 0 0 0 0 0 0 0 0 0 0 0
0 0 0 0 0 0 0 0 0 0 0 0 0 0 0 0 0 0 0 0 0 0 0 0 0 0 0 0 0 0 0 0 0 0 0 0 0 0 0 0 0 0 0 0
0 0 0 0 0 0 0 0 0 0 0 0 0 0 0 0 0 0 0 0 0 0 0 0 0 0 0 0 0 0 0 0 0 0 0 0 0 0 0 0 0 0 0 0
0 0 0 0 0 0 0 0 0 0 0 0 0 0 0 0 0 0 0 0 0 0 0 0 0 0 0 0 0 0 0 0 0 0 0 0 0 0 0 0 0 0 0 0
0 0 0 0 0 0 0 0 0 0 0 0 0 0 0 0 0 0 0 0 0 0 0 0 0 0 0 0 0 0 0 0 0 0 0 0 0 0 0 0 0 0 0 0
0 0 0 0 0 0 0 0 0 0 0 0 0 0 0 0 0 0 0 0 0 0 0 0 0 0 0 0 0 0 0 0 0 0 0 0 0 0 0 0 0 0 0 0
0 0 0 0 0 0 0 0 0 0 0 0 0 0 0 0 0 0 0 0 0 0 0 0 0 0 0 0 0 0 0 0 0 0 0 0 0 0 0 0 0 0 0 0
0 0 0 0 0 0 0 0 0 0 0 0 0 0 0 0 0 0 0 0 0 0 0 0 0 0 0 0 0 0 0 0 0 0 0 0 0 0 0 0 0 0 0 0
0 0 0 0 0 0 0 0 0 0 0 0 0 0 0 0 0 0 0 0 0 0 0 0 0 0 0 0 0 0 0 0 0 0 0 0 0 0 0 0 0 0 0 0
0 0 0 0 0 0 0 0 0 0 0 0 0 0 0 0 0 0 0 0 0 0 0 0 0 0 0 0 0 0 0 0 0 0 0 0 0 0 0 0 0 0 0 0
0 0 0 0 0 0 0 0 0 0 0 0 0 0 0 0 0 0 0 0 0 0 0 0 0 0 0 0 0 0 0 0 0 0 0 0 0 0 0 0 0 0 0 0
0 0 0 0 0 0 0 0 0 0 0 0 0 0 0 0 0 0 0 0 0 0 0 0 0 0 0 0 0 0 0 0 0 0 0 0 0 0 0 0 0 0 0 0
0 0 0 0 0 0 0 0 0 0 0 0 0 0 0 0 0 0 0 0 0 0 0 0 0 0 0 0 0 0 0 0 0 0 0 0 0 0 0 0 0 0 0 0
0 0 0 0 0 0 0 0 0 0 0 0 0 0 0 0 0 0 0 0 0 0 0 0 0 0 0 0 0 0 0 0 0 0 0 0 0 0 0 0 0 0 0 0
0 0 0 0 0 0 0 0 0 0 0 0 0 0 0 0 0 0 0 0 0 0 0 0 0 0 0 0 0 0 0 0 0 0 0 0 0 0 0 0 0 0 0 0
0 0 0 0 0 0 0 0 0 0 0 0 0 0 0 0 0 0 0 0 0 0 0 0 0 0 0 0 0 0 0 0 0 0 0 0 0 0 0 0 0 0 0 0
0 0 0 0 0 0 0 0 0 0 0 0 0 0 0 0 0 0 0 0 0 0 0 0 0 0 0 0 0 0 0 0 0 0 0 0 0 0 0 0 0 0 0 0
0 0 0 0 0 0 0 0 0 0 0 0 0 0 0 0 0 0 0 0 0 0 0 0 0 0 0 0 0 0 0 0 0 0 0 0 0 0 0 0 0 0 0 0
0 0 0 0 0 0 0 0 0 0 0 0 0 0 0 0 0 0 0 0 0 0 0 0 0 0 0 0 0 0 0 0 0 0 0 0 0 0 0 0 0 0 0 0
0 0 0 0 0 0 0 0 0 0 0 0 0 0 0 0 0 0 0 0 0 0 0 0 0 0 0 0 0 0 0 0 0 0 0 0 0 0 0 0 0 0 0 0
0 0 0 0 0 0 0 0 0 0 0 0 0 0 0 0 0 0 0 0 0 0 0 0 0 0 0 0 0 0 0 0 0 0 0 0 0 0 0 0 0 0 0 0
0 0 0 0 0 0 0 0 0 0 0 0 0 0 0 0 0 0 0 0 0 0 0 0 0 0 0 0 0 0 0 0 0 0 0 0 0 0 0 0 0 0 0 0
Wind_Speed
6 5 8 10 14 15 15 15 14 14 14 12 7 7 6 4 4 4 5 6 6 6 5 5 5 5 5 5 5 6 7 7 7 6 6 6 6 6 6 6 6 6 6 5
7 6 7 8 13 18 19 18 17 12 15 10 6 4 4 5 6 7 8 8 7 6 6 6 7 6 6 6 6 6 7 6 6 6 6 6 6 6 6 5 5 5 5 5
6 4 3 12 17 19 17 15 16 20 19 5 6 9 10 9 8 9 9 8 8 8 8 8 7 7 7 6 6 7 7 6 6 6 6 6 6 6 6 6 5 5 5 5
3 4 12 12 9 13 15 15 15 13 8 9 12 11 9 9 10 10 9 8 9 8 7 6 5 5 5 6 7 7 6 6 6 6 6 6 6 6 5 4 5 4 4 4
4 6 9 8 7 14 15 16 14 15 12 9 5 3 7 8 9 10 10 8 8 8 7 6 6 6 7 7 6 7 7 7 7 7 7 6 6 6 5 4 4 4 4 4
5 6 10 9 5 6 7 13 11 14 14 10 7 7 12 8 8 9 7 6 6 5 5 6 6 7 8 7 7 7 7 7 6 7 7 7 6 5 4 4 4 4 3 3
8 7 10 7 3 8 10 12 7 11 13 12 14 15 8 6 7 8 7 6 6 6 6 6 7 8 8 8 7 6 6 6 6 6 6 6 5 4 5 4 4 3 3 2
8 8 11 4 6 10 8 4 4 7 9 11 12 10 7 6 7 6 6 5 6 6 5 5 7 9 8 7 6 7 7 7 6 6 5 5 6 5 5 5 5 3 3 1
9 10 5 5 7 7 3 4 4 5 6 7 7 8 7 7 7 7 6 6 5 7 6 5 6 8 9 7 8 8 8 7 7 6 5 5 6 6 5 4 4 3 2 2
6 8 7 7 6 5 4 5 5 5 5 6 6 6 6 6 6 6 6 6 6 8 7 5 5 5 7 8 9 10 9 8 7 7 6 4 4 4 4 4 4 3 3 2
7 8 7 8 7 6 6 6 5 4 4 6 6 5 5 6 6 6 5 5 6 8 8 7 6 6 7 8 10 10 9 7 6 6 6 5 3 3 3 2 4 4 3 3
9 7 6 10 9 6 7 8 7 5 5 4 5 6 5 5 5 6 7 7 7 7 7 7 7 7 6 7 10 11 9 7 6 5 5 5 4 3 4 3 3 3 3 3
10 8 9 11 9 7 8 9 8 6 6 5 4 5 5 4 5 6 7 8 8 9 8 8 8 7 6 7 8 9 9 7 6 5 5 5 4 4 3 3 4 3 2 1
9 7 9 10 9 8 8 7 5 4 4 3 3 4 5 5 5 7 8 7 8 9 8 8 8 7 6 7 8 8 8 8 7 5 5 4 4 4 3 3 1 1 1 1
11 10 11 9 8 7 5 4 3 3 2 2 3 5 6 7 7 7 7 8 9 9 8 8 8 7 6 8 9 9 7 6 5 5 4 4 4 3 3 3 2 1 1 1
8 8 8 8 9 7 5 5 5 5 4 4 4 5 5 6 7 8 8 9 11 10 9 8 8 7 7 8 9 7 6 9 8 5 5 4 4 3 3 2 2 1 1 2
7 8 7 7 8 7 6 6 6 6 5 5 6 6 8 9 9 8 7 7 7 8 8 8 8 7 7 8 8 6 6 7 9 6 4 4 3 3 3 2 2 2 2 3
11 12 10 8 8 7 6 6 5 5 5 5 7 8 9 11 11 10 9 9 9 8 6 6 8 8 7 7 7 6 6 5 5 4 4 3 3 3 2 2 2 2 2 3
11 11 9 8 8 7 6 5 5 5 5 7 9 9 8 8 9 10 10 10 10 9 5 6 12 9 8 8 8 6 6 6 5 4 3 4 3 2 2 2 2 2 2 2
9 8 7 6 5 5 5 5 5 5 6 8 9 10 9 8 9 10 10 7 5 5 8 9 9 7 7 7 8 5 5 5 5 4 3 3 2 2 2 2 2 2 3 3
7 6 6 5 4 4 5 6 7 7 7 8 10 10 10 9 9 9 9 7 4 7 9 11 7 6 6 7 8 5 5 4 4 3 3 3 2 2 2 2 2 3 3 3
4 4 4 4 5 4 4 5 6 8 9 9 9 10 11 10 9 7 6 5 7 10 8 6 5 7 8 8 5 5 4 4 3 3 3 2 2 2 2 3 3 3 3 3
2 3 4 5 6 6 6 5 6 8 9 9 10 10 10 9 7 8 7 5 6 10 7 5 8 11 10 6 5 4 4 4 3 3 2 2 3 3 3 3 3 3 3 4
3 4 5 6 7 8 8 6 7 7 8 8 7 8 9 8 5 4 5 10 11 10 6 8 11 10 8 4 4 4 3 3 3 2 2 2 2 3 3 3 4 4 4 5
5 6 6 7 7 6 8 9 10 10 9 8 8 7 6 5 5 6 6 8 11 9 6 8 10 8 5 4 3 3 3 3 3 3 3 3 3 3 3 3 4 4 4 5
5 5 5 5 5 6 6 7 7 7 7 8 7 6 6 6 7 7 6 7 8 8 6 5 5 5 3 3 3 3 2 2 2 2 2 3 3 3 4 4 5 5 5 5
6 6 6 6 5 5 5 6 7 7 6 7 7 6 6 6 6 6 7 6 5 5 4 4 3 3 3 2 2 2 1 1 2 2 2 3 3 3 4 5 4 5 5 5
Wind_Direction
242 225 191 201 200 194 204 211 214 226 226 233 228 224 229 220 215 217 218 214 212 212 210 202 196 192 185 183 175 167 167 175 185 179 173 170 168 169 169 169 174 174 171 174
244 225 214 224 211 205 214 218 227 235 241 230 222 212 226 222 211 221 224 221 217 213 207 205 200 194 184 182 175 165 171 178 172 163 162 164 165 163 162 164 164 162 170 173
236 217 221 235 212 206 213 216 212 228 237 206 211 218 220 218 215 221 226 220 213 211 208 207 200 188 184 179 163 165 171 169 164 161 162 164 158 156 162 166 162 165 172 171
232 188 224 237 207 203 217 226 218 230 226 203 217 225 225 214 210 222 224 218 214 209 207 204 187 173 163 154 158 165 167 165 163 160 159 155 152 160 164 160 163 168 172 175
206 220 257 271 213 194 203 233 220 227 233 225 212 236 253 225 210 217 217 214 210 201 193 181 173 165 153 154 157 161 169 170 168 161 156 156 161 165 162 154 157 161 165 166
205 213 233 244 220 185 175 245 227 217 227 216 170 219 245 220 207 220 219 205 197 179 163 165 167 156 154 160 162 174 174 167 159 156 157 161 162 154 146 146 148 146 145 157
212 230 255 257 195 138 181 234 224 209 218 203 203 223 234 192 201 208 207 195 177 164 167 174 161 154 156 159 174 171 149 141 142 148 151 149 141 136 136 132 128 130 131 130
195 218 242 224 147 182 221 247 227 214 212 208 220 232 227 205 200 193 189 177 167 161 167 160 156 153 154 167 161 139 133 132 134 136 135 133 132 130 131 135 133 135 131 122
205 225 246 189 205 233 243 245 242 230 230 212 215 223 220 210 197 190 182 173 162 156 151 150 158 156 157 161 143 135 130 130 129 125 123 131 137 138 135 137 140 148 149 162
247 255 264 261 259 270 268 265 267 249 226 200 212 217 208 196 186 179 172 166 154 149 152 157 155 150 151 145 140 135 133 133 132 129 123 118 123 134 141 150 152 156 165 176
249 269 286 266 246 254 269 281 284 274 241 213 205 212 202 192 185 178 168 160 156 157 159 158 147 144 144 143 138 132 131 132 129 127 129 124 116 126 142 162 168 168 178 176
233 230 237 266 264 261 261 259 254 253 262 246 205 201 191 188 180 168 162 154 150 149 149 147 143 141 142 143 141 136 135 136 135 133 131 130 125 99 88 118 129 146 158 169
239 248 254 271 273 256 251 259 258 246 235 233 218 190 179 176 166 154 153 156 158 154 147 142 139 138 142 141 139 138 140 141 137 138 139 139 137 134 120 76 83 96 118 145
250 255 263 259 258 254 251 256 257 259 245 215 187 165 156 151 148 154 161 158 144 135 135 137 135 137 140 135 131 130 131 136 137 139 139 139 139 138 141 143 129 14 21 321
245 236 246 261 264 259 247 232 234 242 212 183 161 160 160 159 160 156 142 133 128 126 130 133 132 133 135 132 130 131 130 131 130 129 129 130 130 130 134 142 153 191 311 308
249 247 248 249 249 248 234 218 217 222 200 181 172 171 158 142 131 127 131 137 139 142 143 138 135 137 135 130 126 123 126 135 132 130 128 128 131 136 143 153 169 199 239 262
241 248 242 241 239 236 232 226 216 206 188 180 173 150 133 126 124 126 125 122 121 125 132 135 135 132 129 129 127 127 127 133 133 127 130 138 143 151 161 171 193 220 244 259
234 240 235 229 228 230 237 229 208 192 184 174 147 142 144 146 146 140 132 120 111 103 106 122 128 125 122 123 124 126 128 129 132 135 137 143 150 158 166 181 203 229 256 270
235 237 236 231 224 218 219 211 195 175 157 150 149 148 142 137 133 132 132 130 132 132 133 131 132 123 122 128 125 123 127 129 130 134 141 154 146 153 171 192 216 233 246 259
228 227 227 229 222 205 194 178 159 149 148 144 135 129 127 130 133 132 129 124 130 133 136 135 128 124 125 131 126 124 129 134 138 142 144 150 160 177 190 209 223 237 248 254
213 209 206 197 182 168 162 156 150 146 142 142 140 138 134 131 132 133 130 122 113 124 131 132 126 128 129 133 128 127 131 136 142 150 157 163 172 188 206 222 235 247 251 257
196 184 179 161 141 130 124 129 136 135 133 130 125 126 128 130 128 117 107 124 135 134 129 128 130 137 140 133 128 130 133 139 146 153 162 172 183 201 219 229 239 250 254 256
149 142 139 136 132 121 103 105 121 128 130 132 134 137 136 134 138 136 129 128 133 134 126 131 141 142 137 125 128 131 138 147 156 166 177 187 198 210 224 236 244 250 253 258
103 108 111 110 109 109 107 103 103 103 106 107 112 120 125 122 107 91 113 134 136 129 125 139 141 140 129 120 128 135 145 156 166 178 189 200 210 219 229 240 248 252 255 258
100 103 108 113 111 111 112 108 103 101 100 98 95 92 92 102 117 122 123 131 133 123 122 136 137 131 122 128 137 147 157 173 186 192 197 207 220 228 238 243 247 253 257 260
90 97 96 93 102 113 118 117 113 114 114 110 101 95 94 97 107 113 115 117 122 120 119 124 131 126 127 137 146 157 169 188 202 203 208 223 231 237 245 249 251 255 259 261
81 85 89 88 86 94 103 108 113 115 117 119 114 109 109 111 112 112 114 115 117 116 118 120 122 126 132 139 148 159 176 193 206 217 225 234 240 245 250 253 258 260 262 263